Lapse_Rate
8.3 9.1 8.5 8.3 8.1 8.2 8.3 9.2 8.4 8.4 9.1 9.3 9.1 8.7 8.4 8.4 8.3 8.5 8.4 7.4 6.3 6.2 5.8 5.6 6.3 6.0 6.6 7.8 7.7 7.7 8.5 8.7 9.3 9.4 8.6 8.1 7.4 7.1 6.5 6.5 6.6 6.5 6.5 6.9 7.0 6.9 6.8
9.3 9.4 9.4 9.4 9.1 8.9 8.4 8.4 8.3 8.3 8.3 9.4 9.5 8.9 9.1 9.2 8.8 8.5 8.2 7.4 7.4 5.9 5.5 5.5 7.0 6.7 7.0 6.6 9.3 8.6 9.5 9.4 9.4 9.0 8.6 8.4 7.7 7.7 6.9 6.6 6.5 6.6 6.5 6.6 6.8 6.8 6.9
9.3 9.3 9.4 9.5 9.5 9.3 9.1 8.6 8.1 8.3 8.6 9.3 9.5 9.6 9.5 9.4 8.8 9.2 7.8 7.3 6.3 5.7 5.9 6.6 7.0 7.7 8.2 7.6 9.7 9.0 9.0 9.4 9.5 9.1 8.3 8.7 8.6 7.7 7.3 6.5 7.2 6.8 6.5 6.5 6.5 6.6 6.5
9.1 9.3 9.3 9.6 9.6 9.4 9.2 8.7 8.0 8.2 8.1 8.6 9.1 9.4 9.5 9.3 9.1 8.1 5.8 6.1 5.7 5.8 6.3 7.0 7.7 8.9 7.4 9.0 9.5 9.2 9.7 9.2 9.6 9.5 9.0 8.9 8.9 7.9 7.3 7.3 6.8 6.5 6.5 6.5 6.5 6.5 6.4
8.1 8.2 8.9 9.3 9.6 9.5 9.3 8.6 8.1 8.1 8.1 8.2 9.0 9.3 9.3 9.4 8.4 5.9 5.2 6.0 6.1 5.6 6.9 7.3 7.1 7.8 7.1 7.3 8.3 9.4 9.5 8.6 9.0 9.1 9.1 9.2 8.5 7.3 7.1 6.5 6.5 6.5 6.5 6.5 6.5 6.5 6.5
7.1 7.0 7.3 8.6 9.5 9.1 9.2 9.1 8.3 8.2 8.1 8.2 8.4 8.6 8.9 9.1 7.6 6.7 6.1 6.0 6.5 7.5 7.9 8.6 9.1 7.5 8.1 7.6 8.7 9.1 9.5 9.2 8.3 8.2 7.8 7.6 7.1 6.5 6.5 6.5 6.5 6.5 6.5 6.5 6.5 6.5 6.5
5.6 7.6 7.3 8.0 9.1 9.0 9.3 9.2 8.7 7.8 7.0 8.2 8.6 8.6 8.3 8.5 8.4 7.7 6.5 6.5 5.8 6.7 7.0 7.3 7.4 7.4 7.9 8.7 9.2 8.6 9.1 8.5 8.3 7.5 6.5 6.8 6.5 6.5 6.5 6.5 6.5 6.5 6.5 6.5 6.5 6.5 6.5
5.5 6.7 7.0 7.6 8.5 8.9 9.0 9.2 9.1 6.9 6.6 7.5 7.9 8.0 8.3 8.1 7.7 7.4 6.3 6.4 6.9 6.8 6.7 8.1 8.1 8.0 8.6 8.7 7.3 8.1 9.0 7.3 6.9 6.5 6.5 6.5 6.5 6.5 6.5 6.5 6.5 6.5 6.5 6.5 6.5 6.5 6.5
6.5 7.5 9.0 9.1 8.5 9.0 9.0 8.7 8.7 8.1 7.8 7.5 7.6 7.8 8.4 7.7 7.3 6.3 6.1 6.1 5.1 5.6 6.6 7.2 7.2 7.7 7.9 8.2 7.2 7.3 8.1 7.5 6.5 6.5 6.5 6.5 6.5 6.5 6.5 6.5 6.5 6.5 6.5 6.5 6.5 6.5 6.5
8.3 9.3 9.3 9.1 9.2 9.0 8.9 8.8 8.2 8.1 7.8 7.4 7.4 7.6 8.1 7.2 7.1 6.2 6.3 6.2 5.9 5.3 6.5 6.5 6.8 7.5 7.9 8.0 6.7 8.3 8.3 7.5 6.6 6.5 6.5 6.5 6.6 6.5 6.5 6.5 6.5 6.5 6.5 6.5 6.5 6.5 6.5
9.5 9.3 9.1 9.1 8.8 8.2 8.7 8.5 7.9 7.9 7.8 7.7 7.3 7.5 7.5 7.1 8.0 7.0 6.7 5.8 6.0 6.1 6.5 6.5 6.7 8.8 8.1 7.0 7.1 7.3 8.6 7.6 6.5 6.5 6.5 6.5 6.5 6.5 6.5 6.5 6.5 6.5 6.5 6.5 6.5 6.5 6.5
9.3 9.0 8.7 9.0 9.0 8.6 8.2 7.9 7.7 7.8 7.6 7.4 7.5 7.5 7.6 8.3 8.1 8.1 6.6 6.8 7.3 6.5 6.5 6.5 6.8 6.5 6.5 6.9 6.8 7.4 7.3 6.8 6.8 6.5 6.5 6.5 6.9 6.5 6.5 6.5 6.5 6.5 6.5 6.5 6.5 6.5 6.5
8.6 8.7 8.7 8.4 8.4 7.8 8.0 7.9 7.8 7.8 7.7 7.6 7.5 7.4 7.7 8.2 7.0 7.9 7.3 7.3 6.5 6.5 6.5 6.5 6.5 6.5 6.5 6.5 6.5 6.5 6.5 6.5 6.5 6.5 6.5 6.5 6.5 6.5 6.6 6.5 6.5 6.5 6.5 6.5 6.5 6.5 6.5
7.8 8.1 7.5 7.5 7.2 7.1 7.6 7.8 8.0 7.3 7.2 7.2 7.5 7.3 7.3 8.1 6.8 7.6 7.7 6.5 6.5 6.5 6.5 6.5 6.5 6.5 6.5 6.5 6.5 6.5 6.5 6.5 6.5 6.5 6.5 6.5 6.5 6.5 6.5 6.5 6.5 6.5 6.5 6.5 6.5 6.5 6.5
8.1 7.7 7.2 7.0 7.4 7.4 7.0 7.2 7.7 7.7 7.4 6.7 7.3 6.7 7.5 8.3 7.1 7.2 6.6 6.5 6.5 6.5 6.5 6.5 6.5 6.5 6.5 6.5 6.5 6.5 6.5 6.5 6.5 6.5 6.5 6.5 6.5 6.5 6.5 6.5 6.5 6.5 6.5 6.5 6.5 6.5 6.5
7.5 7.2 6.8 6.6 6.5 6.8 7.0 6.9 7.3 8.1 6.7 6.6 6.0 7.2 7.5 7.7 7.2 7.0 6.6 6.5 6.5 6.5 6.5 6.5 6.5 6.5 6.5 6.5 6.5 6.5 6.5 6.5 6.5 6.5 6.6 6.5 6.5 6.5 6.5 6.6 6.5 6.5 6.5 6.5 6.5 6.5 6.5
7.5 6.4 6.7 6.5 6.3 6.7 6.8 6.8 7.5 7.8 7.8 6.9 8.3 6.6 6.5 7.2 7.1 6.3 6.5 6.5 6.5 6.9 6.9 6.5 6.5 6.5 6.5 6.5 6.5 6.5 6.5 6.5 6.5 6.5 6.6 6.5 6.5 6.5 6.5 6.5 6.5 6.5 6.5 6.5 6.5 6.5 6.5
7.3 6.2 6.4 5.8 5.4 6.2 6.3 6.5 7.1 7.2 7.3 8.4 7.5 6.5 6.2 7.0 6.6 6.7 6.5 6.5 6.7 6.6 7.0 6.5 6.5 6.5 6.5 6.5 6.5 6.5 6.5 6.5 6.8 6.6 6.5 6.5 6.5 6.5 6.5 6.5 6.5 6.5 6.5 6.5 6.5 6.5 6.5
6.4 6.2 5.9 5.5 5.4 5.8 6.2 5.9 6.1 6.4 7.2 7.9 6.6 6.6 6.7 7.2 6.5 6.5 6.5 6.5 6.7 6.5 6.5 6.5 6.5 6.5 6.5 6.5 6.5 6.5 6.5 6.7 6.8 6.5 6.5 6.5 6.5 6.5 6.5 6.5 6.5 6.5 6.5 6.5 6.5 6.5 6.5
6.1 5.7 4.2 4.8 5.3 5.7 5.9 6.2 5.9 5.9 6.3 7.4 7.0 6.5 7.1 7.0 7.1 6.5 6.5 6.5 6.5 6.8 6.5 6.6 6.5 6.6 6.5 6.5 6.5 6.5 6.5 6.5 6.8 6.6 6.0 6.5 6.5 6.5 6.5 6.5 6.5 6.5 6.5 6.5 6.5 6.5 6.5
5.8 6.1 4.3 4.0 4.7 5.4 5.7 6.1 5.9 5.4 5.2 5.5 7.2 6.7 7.2 6.5 6.5 6.5 6.5 6.5 6.5 6.5 6.6 6.8 6.5 6.5 6.5 6.5 6.5 6.5 6.5 6.5 6.4 5.7 6.4 6.5 6.5 6.5 6.5 6.5 6.5 6.5 6.5 6.5 6.5 6.5 6.5
5.4 6.4 5.4 4.3 4.3 5.2 5.3 5.7 5.5 4.8 4.3 6.5 6.7 6.7 6.5 6.4 6.7 6.5 6.5 6.5 6.5 6.5 6.5 6.5 6.5 6.5 6.5 6.5 6.5 6.5 6.5 6.5 6.5 6.5 6.5 6.5 6.5 6.5 6.5 6.5 6.5 6.5 6.5 6.5 6.5 6.5 6.5
5.2 5.4 5.4 4.9 4.6 4.5 5.0 5.2 5.1 4.7 4.7 7.5 7.0 7.0 6.3 6.1 6.4 6.5 6.5 6.5 6.5 6.5 6.6 6.8 6.5 6.5 6.5 6.5 6.3 6.2 6.6 6.3 6.5 6.5 6.5 6.5 6.5 6.5 6.5 6.5 6.5 6.5 6.5 6.5 6.5 6.5 6.5
5.3 4.9 5.5 5.3 5.0 5.1 4.8 4.9 4.7 4.3 4.3 6.6 5.7 5.7 6.1 6.5 6.5 6.5 6.5 6.5 6.5 6.5 6.5 6.7 6.6 6.4 6.8 7.1 6.6 5.8 6.7 6.7 6.4 6.5 6.1 6.5 6.5 6.5 6.5 6.5 6.5 6.5 6.5 6.5 6.5 6.5 6.5
5.6 5.1 5.2 5.2 5.2 5.0 5.1 4.5 4.4 4.2 4.0 5.0 4.7 4.5 5.9 6.5 6.2 6.5 6.5 6.5 6.5 6.6 6.5 6.6 7.0 7.0 6.6 6.5 6.5 6.5 6.5 6.5 6.5 6.5 6.5 6.5 6.5 6.5 6.5 6.5 6.5 6.5 6.5 6.5 6.5 6.5 6.5
4.7 5.8 5.1 4.9 5.0 5.1 5.1 5.3 4.7 4.3 4.3 5.3 3.8 3.2 4.7 5.7 6.5 6.4 6.5 6.7 6.5 6.5 6.5 6.8 7.0 6.6 6.6 6.4 6.5 6.5 6.5 6.5 6.5 6.5 6.5 6.5 6.5 6.5 6.5 6.5 6.5 6.5 6.5 6.7 6.5 6.5 6.5
4.2 5.0 5.5 5.2 5.0 5.1 5.3 5.0 4.8 4.7 4.2 4.3 2.7 2.5 3.5 5.8 6.0 5.0 6.5 6.5 6.2 6.4 6.5 6.5 6.9 6.5 6.5 6.5 6.5 6.5 6.5 6.5 6.5 6.5 6.5 6.5 6.5 6.5 6.5 6.5 6.5 6.5 6.5 6.8 6.5 6.5 6.3
4.0 4.5 5.1 5.4 5.2 5.0 5.1 5.0 4.6 4.5 4.7 4.3 3.5 3.7 3.3 6.0 5.6 5.2 5.2 5.2 5.8 6.0 6.5 6.2 6.3 6.1 6.2 6.5 6.5 6.5 6.5 6.5 6.5 6.5 6.5 6.5 6.5 6.5 6.5 6.5 6.5 6.2 6.6 6.5 6.3 6.5 6.6
3.9 4.2 5.1 5.4 5.7 5.4 5.1 5.0 5.0 4.9 4.3 5.7 4.4 4.6 4.4 3.4 3.6 4.6 4.5 4.2 3.7 3.6 3.8 6.0 6.2 6.1 5.7 6.5 6.5 6.5 6.5 6.5 6.5 6.5 6.5 6.5 6.5 6.5 6.5 6.5 6.2 6.3 6.3 6.0 5.8 5.9 6.6
Wind_Speed
20 22 22 21 21 19 18 20 19 19 21 21 19 23 20 20 24 22 24 20 20 26 18 14 12 10 3 5 5 12 11 11 9 5 2 1 3 4 6 6 9 12 12 14 14 15 14
23 24 25 25 21 21 20 19 17 17 19 20 21 19 22 23 24 26 27 21 15 11 18 15 14 10 3 6 10 12 7 11 8 4 4 1 3 6 5 8 10 11 15 15 14 14 14
23 24 23 25 25 24 22 21 18 17 18 18 19 21 21 23 25 27 27 27 27 18 19 18 13 7 6 1 9 8 6 7 3 3 4 3 3 2 6 8 6 10 12 13 14 16 18
24 24 23 25 25 23 24 24 20 18 18 19 19 19 21 23 25 27 35 28 8 23 19 16 12 5 3 6 7 7 5 5 5 3 2 6 3 4 4 7 10 13 13 14 14 16 17
29 23 23 26 27 24 21 23 21 18 19 19 18 20 22 22 26 37 19 10 20 23 19 14 5 4 4 4 5 7 7 8 7 5 1 2 1 3 3 4 4 5 10 14 14 12 10
28 29 24 28 26 23 23 19 20 18 19 19 19 19 19 20 23 26 27 22 20 14 11 6 2 5 6 5 6 7 5 4 7 5 3 3 1 1 1 2 4 7 9 14 15 11 11
31 27 26 27 27 22 21 17 17 17 18 21 19 17 18 18 19 20 12 8 7 5 6 4 10 5 10 10 9 6 7 6 3 4 4 4 0 5 7 13 17 13 17 19 17 17 17
17 13 19 23 19 23 20 19 17 11 18 18 18 16 14 15 17 19 6 3 4 3 3 1 4 8 9 9 6 8 6 6 5 6 6 2 8 12 11 15 16 18 18 21 21 18 16
16 19 21 19 20 21 20 20 18 15 17 14 15 13 12 13 18 5 3 5 9 9 3 6 4 2 4 3 4 10 8 4 5 7 7 8 8 15 14 14 15 17 17 20 19 16 15
21 26 25 20 20 20 20 21 19 17 13 10 12 9 9 14 3 3 3 2 8 6 3 4 6 4 4 4 1 8 9 3 4 4 5 6 10 12 14 14 10 18 10 19 18 10 6
31 27 24 24 22 24 25 21 19 16 13 10 8 6 7 5 2 2 1 4 5 3 5 7 9 5 7 4 9 4 5 3 6 2 3 3 6 6 10 8 5 8 11 12 8 9 10
33 29 25 24 25 25 24 20 16 15 12 10 5 4 8 2 2 2 7 7 2 2 4 4 5 6 8 8 5 4 2 5 2 2 6 13 10 8 7 11 14 7 3 2 3 1 3
30 31 30 26 27 26 25 19 17 15 13 8 2 4 3 3 2 2 6 1 1 2 6 7 6 9 9 6 8 6 4 3 1 3 2 5 7 7 12 10 10 3 3 3 2 2 2
31 33 35 34 30 25 19 17 17 13 7 3 11 9 3 5 4 2 1 1 1 2 6 7 7 9 5 10 5 4 4 2 6 3 4 4 1 5 5 2 7 12 7 2 4 2 3
34 36 38 38 35 28 15 13 17 15 7 24 18 4 3 3 4 2 1 2 4 4 3 9 12 6 2 5 1 4 3 2 2 9 2 3 3 2 4 4 4 6 4 4 4 1 1
34 37 39 39 35 25 15 8 14 16 27 23 3 5 5 9 5 2 3 4 3 3 6 13 5 5 6 5 2 5 1 1 2 3 3 4 4 2 3 3 5 4 5 3 2 6 4
35 38 40 38 30 18 13 10 14 14 15 17 4 3 4 6 3 4 3 3 3 5 2 2 4 3 6 4 4 2 3 5 5 4 7 6 3 3 4 3 4 2 5 4 2 1 1
36 37 38 36 28 18 15 15 15 13 11 6 3 4 3 5 3 0 2 2 6 7 1 2 6 7 3 3 2 3 2 2 2 2 4 6 2 4 2 3 4 4 6 6 3 7 3
36 35 35 35 26 21 21 18 15 13 15 3 3 3 3 2 1 1 3 4 3 4 6 4 3 5 5 2 2 5 2 2 2 3 4 6 4 4 3 2 3 3 11 10 3 3 6
34 32 31 32 28 26 24 21 18 17 19 3 3 3 1 2 3 2 4 1 2 1 7 7 4 1 3 2 2 3 3 2 0 2 2 1 3 4 1 2 4 5 9 9 6 4 4
32 30 27 27 26 23 22 20 17 16 20 4 2 2 1 2 3 5 2 2 9 4 3 2 1 5 5 2 4 3 1 4 6 5 3 1 2 3 3 3 3 5 7 9 9 8 6
28 29 25 25 25 24 23 22 21 21 21 1 1 3 3 2 3 5 2 8 8 5 8 7 6 8 8 7 6 6 7 5 4 5 2 1 0 3 2 4 2 4 9 7 7 8 7
24 26 21 19 21 22 21 22 23 24 14 2 2 2 2 2 4 3 3 4 6 4 4 6 9 4 6 4 8 6 2 1 2 4 5 2 1 3 2 5 4 2 5 6 2 7 4
20 22 18 18 18 18 18 21 22 24 16 3 3 3 1 1 1 3 2 6 6 7 4 5 7 5 2 6 8 8 4 2 4 4 2 1 2 1 3 3 2 3 3 2 4 3 4
19 19 18 15 17 17 19 21 21 21 18 4 3 3 3 1 3 3 5 4 6 4 3 3 4 3 5 5 3 2 3 3 3 3 4 4 2 1 1 2 4 3 2 2 3 3 4
16 17 16 15 15 17 18 18 19 17 17 3 3 3 3 2 2 7 2 2 2 3 3 2 2 3 3 3 2 2 1 2 2 2 2 3 3 1 3 1 2 2 3 1 2 2 3
12 15 15 13 14 15 17 18 16 15 14 3 2 4 2 1 3 4 3 3 3 2 3 2 2 2 1 3 2 2 2 1 2 3 3 3 2 1 3 2 2 4 4 1 1 3 4
10 12 13 12 12 13 14 15 13 13 13 4 1 5 2 2 2 4 3 3 4 3 2 1 0 2 2 2 1 1 2 1 3 2 2 1 1 3 1 1 5 4 1 2 1 2 2
8 10 11 12 11 11 11 12 12 15 13 7 2 1 6 3 2 3 3 3 3 2 2 3 2 2 3 2 1 2 2 1 2 3 1 2 3 2 2 3 1 3 3 3 2 1 2
Wind_Direction
333 327 325 326 318 318 314 317 322 320 321 325 331 324 337 333 328 323 321 308 300 309 179 161 171 166 169 203 251 135 136 145 159 168 136 55 312 281 262 281 285 266 271 273 283 288 291
330 329 330 327 325 323 316 314 317 310 312 318 324 328 328 332 330 321 315 303 282 249 158 162 172 160 247 227 100 140 177 167 163 186 131 175 353 356 320 278 276 294 302 297 298 297 296
322 324 326 329 327 326 324 321 317 312 309 313 319 324 327 325 324 320 312 304 302 185 154 160 164 177 228 275 137 128 162 198 192 202 150 110 350 322 336 305 310 309 289 281 274 269 258
312 317 323 329 329 328 330 327 319 318 312 312 315 320 325 323 323 313 308 294 183 138 146 143 168 206 259 79 146 158 159 165 151 146 49 51 325 288 275 288 297 298 282 275 265 253 248
305 314 325 327 329 326 326 328 329 331 327 317 318 324 326 325 331 316 295 136 121 122 128 139 152 217 181 136 178 180 169 164 161 155 140 236 260 248 309 308 319 245 269 272 286 285 247
301 333 333 328 324 328 332 333 328 331 328 323 316 322 323 329 333 352 114 117 97 101 123 141 273 193 167 176 147 157 175 173 166 171 216 209 174 337 272 190 239 290 283 284 285 290 294
37 352 333 326 330 327 325 327 323 330 323 315 317 319 322 329 329 337 100 115 94 81 247 175 172 74 124 101 132 155 155 181 177 205 234 112 299 227 239 231 244 262 272 276 279 284 282
32 329 320 316 334 324 330 330 323 310 303 310 313 313 323 327 327 307 257 307 35 93 159 332 139 70 123 154 140 151 174 190 201 218 193 219 267 250 263 270 278 270 270 265 275 265 276
357 335 326 343 336 333 329 326 330 322 316 309 323 318 332 327 334 40 101 49 335 318 82 129 76 130 149 201 165 170 194 203 217 248 241 253 268 316 303 276 271 263 260 264 262 293 281
341 346 340 346 340 336 334 330 334 332 320 313 312 323 348 328 338 337 55 73 292 305 108 122 180 194 135 201 224 140 200 213 210 261 269 255 258 260 274 274 269 276 273 254 255 260 257
346 343 342 342 345 338 336 337 334 328 326 322 320 1 36 7 6 346 58 275 278 319 147 150 130 147 153 177 133 163 185 206 255 286 27 246 299 260 270 256 219 251 302 285 248 242 264
347 342 344 340 336 336 340 334 330 321 317 316 333 103 25 12 228 128 169 221 230 192 104 132 127 169 156 210 127 136 103 62 42 292 249 259 270 294 245 269 274 279 298 335 166 198 245
348 341 337 334 333 329 330 325 328 326 322 334 76 152 66 355 7 86 166 254 131 3 201 129 154 155 177 177 162 178 184 175 197 309 256 287 212 230 217 279 282 266 208 190 185 170 320
346 339 335 330 324 318 326 332 332 334 313 123 130 129 130 80 19 180 110 48 49 96 72 119 141 162 195 173 155 151 143 240 226 233 285 329 316 12 21 355 297 310 320 324 307 31 91
348 341 334 333 333 335 324 335 344 358 5 128 115 90 75 64 49 346 54 58 21 18 131 133 146 166 144 153 148 173 217 17 186 194 261 313 244 6 67 305 333 349 333 276 288 34 275
350 339 336 336 337 342 357 350 4 37 108 117 110 111 65 80 111 26 38 61 351 267 169 165 147 235 155 149 102 141 165 265 251 244 200 307 314 96 335 303 209 179 275 5 261 349 42
349 344 345 350 355 5 29 39 26 48 105 144 97 58 45 86 52 35 21 23 344 53 39 294 72 110 102 119 178 197 125 200 208 228 186 265 204 338 347 175 296 259 323 224 205 189 304
352 356 359 5 11 35 60 51 38 23 358 68 26 69 326 312 65 322 8 26 327 323 283 55 16 60 76 83 88 94 68 74 46 274 243 206 291 267 247 138 259 264 313 330 68 326 2
355 4 15 17 32 52 51 46 45 20 17 99 60 72 296 309 331 24 78 4 289 4 41 51 79 30 313 22 56 111 72 85 53 287 348 349 306 316 104 290 300 335 350 358 302 2 344
356 10 31 32 45 49 42 36 28 17 7 1 114 97 260 254 258 263 116 195 143 315 62 61 85 190 224 145 309 136 128 151 347 337 253 320 44 25 104 297 292 337 347 11 22 47 38
359 12 39 47 48 41 40 30 22 2 346 326 37 99 213 183 255 100 150 242 75 62 22 321 92 13 326 108 125 80 5 193 193 190 221 345 67 66 323 322 306 341 3 19 19 17 77
2 10 29 54 54 38 30 21 5 348 330 243 159 160 236 213 259 126 219 62 78 61 355 56 54 38 44 50 20 35 345 27 74 295 88 300 213 19 290 15 37 33 11 23 22 355 52
7 11 21 30 39 47 41 25 15 3 352 28 259 283 301 283 303 93 3 21 66 357 56 35 333 50 52 16 338 336 14 117 82 6 351 47 95 27 294 349 322 252 9 7 29 47 359
9 10 20 21 33 34 41 35 22 19 15 307 7 306 274 195 353 97 127 76 69 16 88 33 6 359 29 302 296 274 269 278 66 33 24 336 139 143 267 325 354 169 86 312 305 42 39
2 9 12 18 12 19 22 28 28 21 22 43 352 342 328 152 127 143 147 110 118 101 55 42 29 9 321 307 285 253 229 232 152 117 6 15 304 17 96 269 154 153 98 26 19 91 43
1 1 11 16 14 5 2 9 17 32 15 86 49 301 287 121 44 343 172 316 231 117 145 56 211 283 302 272 271 297 6 326 310 289 178 273 213 139 345 10 293 108 125 43 304 186 81
358 359 358 9 12 10 6 359 1 10 37 30 52 8 293 61 41 3 357 340 329 306 75 144 207 261 145 308 328 347 338 2 303 316 1 321 341 264 302 270 316 128 126 290 60 209 74
339 352 350 352 5 5 356 353 349 359 5 76 216 360 75 27 67 8 17 5 340 335 326 34 31 226 284 273 315 4 288 146 316 205 326 307 4 224 58 283 289 141 104 156 170 114 45
318 337 345 338 348 354 359 355 353 349 351 336 77 72 320 89 119 3 67 75 59 83 330 322 301 14 15 318 325 332 277 178 312 282 6 293 192 241 198 224 176 194 91 119 68 15 107